Martha's Vineyard, MA

8:06 PM EDT on April 21, 2018 (GMT -0400)
Martha's Vineyard

Weather History for KMVY - September, 2014

Change the Weather History Date:

Saturday, September 27, 2014

  Actual Average Record
Temperature  
Mean Temperature 62 °F -  
Max Temperature 81 °F 69 °F 81 °F (2014)
Min Temperature 45 °F 51 °F 34 °F (2015)
Degree Days  
Heating Degree Days 3    
Growing Degree Days 12 (Base 50)    
Moisture  
Dew Point 51 °F    
Average Humidity 84    
Maximum Humidity 100    
Minimum Humidity 45    
Precipitation  
Precipitation 0.00 in - - ()
Sea Level Pressure  
Sea Level Pressure 30.15 in    
Wind  
Wind Speed 5 mph (NNW)    
Max Wind Speed 10 mph    
Max Gust Speed -    
Visibility 7 miles    
Events Fog    
Averages and records for this station are not official NWS values.
T = Trace of Precipitation, MM = Missing Value Source: NWS Daily Summary

Daily Weather History Graph

Daily Weather History Graph

Search for Another Location

Airport or City:

Astronomy

Sep. 27, 2014 Rise Set
Actual Time 6:34 AM EDT 6:31 PM EDT
Civil Twilight 6:07 AM EDT 6:58 PM EDT
Nautical Twilight 5:35 AM EDT 7:30 PM EDT
Astronomical Twilight 5:02 AM EDT 8:03 PM EDT
Moon 9:49 AM EDT (9/27) 8:26 PM EDT (9/27)
Length of Visible Light 12h 51m
Length of Day
11h 56m
Waxing Crescent, 11% of the Moon is Illuminated
Sep 27
Waxing Crescent
Oct 1
First Quarter
Oct 8
Full
Oct 15
Last Quarter
Oct 23
New

Hourly Weather History & Observations

Time (EDT) Temp. Windchill Dew Point Humidity Pressure Visibility Wind Dir Wind Speed Gust Speed Precip Events Conditions
12:53 AM 46.9 °F - 46.9 °F 100% 30.14 in 10.0 mi NNW 6.9 mph - N/A   Clear
1:36 AM 46.0 °F 43.1 °F 46.0 °F 100% 30.14 in 1.8 mi NNW 5.8 mph - N/A   Clear
1:45 AM 46.0 °F 43.1 °F 46.0 °F 100% 30.14 in 3.0 mi NNW 5.8 mph - N/A   Clear
1:53 AM 46.0 °F 42.5 °F 45.0 °F 96% 30.14 in 5.0 mi NNW 6.9 mph - N/A   Clear
2:53 AM 48.0 °F - 46.9 °F 96% 30.13 in 10.0 mi NNW 6.9 mph - N/A   Clear
3:53 AM 46.9 °F - 46.0 °F 97% 30.13 in 3.0 mi NNW 5.8 mph - N/A   Clear
4:08 AM 46.0 °F 43.1 °F 45.0 °F 96% 30.13 in 1.8 mi North 5.8 mph - N/A   Clear
4:20 AM 45.0 °F 42.6 °F 44.1 °F 97% 30.13 in 3.0 mi NNW 4.6 mph - N/A   Clear
4:38 AM 46.0 °F - 45.0 °F 96% 30.13 in 1.2 mi Calm Calm - N/A   Clear
4:46 AM 46.0 °F 44.8 °F 46.0 °F 100% 30.14 in 0.5 mi NNW 3.5 mph - N/A Fog Fog
4:53 AM 45.0 °F 42.6 °F 45.0 °F 100% 30.14 in 2.0 mi NNW 4.6 mph - N/A   Clear
5:00 AM 45.0 °F 42.6 °F 45.0 °F 100% 30.14 in 0.8 mi NNW 4.6 mph - N/A   Clear
5:21 AM 45.0 °F - 44.1 °F 97% 30.14 in 2.5 mi Calm Calm - N/A   Clear
5:28 AM 46.0 °F 44.8 °F 45.0 °F 96% 30.14 in 10.0 mi NW 3.5 mph - N/A   Clear
5:53 AM 46.0 °F 43.9 °F 45.0 °F 96% 30.14 in 6.0 mi NNW 4.6 mph - N/A   Clear
6:53 AM 46.9 °F - 46.0 °F 97% 30.15 in 8.0 mi North 5.8 mph - N/A   Clear
7:53 AM 59.0 °F - 57.9 °F 96% 30.16 in 10.0 mi Calm Calm - N/A   Clear
8:53 AM 66.0 °F - 60.1 °F 81% 30.17 in 10.0 mi NNW 4.6 mph - N/A   Clear
9:53 AM 71.1 °F - 60.1 °F 68% 30.17 in 10.0 mi North 5.8 mph - N/A   Clear
10:53 AM 73.9 °F - 57.9 °F 57% 30.17 in 10.0 mi North 10.4 mph - N/A   Clear
11:53 AM 75.9 °F - 57.0 °F 52% 30.17 in 10.0 mi North 8.1 mph - N/A   Clear
12:53 PM 78.1 °F - 55.9 °F 46% 30.17 in 10.0 mi North 9.2 mph - N/A   Clear
1:53 PM 79.0 °F - 55.9 °F 45% 30.15 in 10.0 mi Variable 5.8 mph - N/A   Clear
2:53 PM 79.0 °F - 55.9 °F 45% 30.14 in 10.0 mi Variable 5.8 mph - N/A   Clear
3:53 PM 77.0 °F - 59.0 °F 54% 30.14 in 10.0 mi South 6.9 mph - N/A   Clear
4:53 PM 75.0 °F - 59.0 °F 57% 30.14 in 10.0 mi South 5.8 mph - N/A   Clear
5:53 PM 72.0 °F - 59.0 °F 64% 30.15 in 10.0 mi ESE 3.5 mph - N/A   Clear
6:53 PM 63.0 °F - 59.0 °F 87% 30.15 in 10.0 mi Calm Calm - N/A   Clear
7:53 PM 59.0 °F - 57.0 °F 93% 30.17 in 10.0 mi Calm Calm - N/A   Clear
8:53 PM 55.0 °F - 54.0 °F 96% 30.17 in 10.0 mi Calm Calm - N/A   Clear
9:53 PM 54.0 °F - 52.0 °F 93% 30.18 in 10.0 mi Calm Calm - N/A   Clear
10:53 PM 52.0 °F - 50.0 °F 93% 30.18 in 10.0 mi Calm Calm - N/A   Clear
11:53 PM 50.0 °F - 48.9 °F 96% 30.17 in 10.0 mi Calm Calm - N/A   Clear